Orbital Elements at Epoch 2459200.5 (2020-Dec-17.0) TDB
Reference: JPL 2 (heliocentric ecliptic J2000)
Element | Value | Uncertainty (1-sigma) | Units |
e | .7081566380952619 | 0.00091051 | |
a | 16.57827382182716 | 0.053916 | au |
q | 4.83825916673935 | 0.00066111 | au |
i | 147.297215915841 | 0.00058024 | deg |
node | 290.147725664494 | 0.0035138 | deg |
peri | 104.5458585482636 | 0.039444 | deg |
M | 1.684104277977435 | 0.004472 | deg |
tp | 2459085.161614469971 (2020-Aug-23.66161447) | 0.3502 | TDB |
period | 24655.13527504197 67.50 | 120.28 0.3293 | d yr |
n | .01460142059591223 | 7.123e-05 | deg/d |
Q | 28.31828847691497 | 0.092097 | au |
|
| | Orbit Determination Parameters
Additional Information
|